Precipitable_Water
0.42 0.40 0.38 0.33 0.30 0.28 0.28 0.33 0.39 0.41 0.42 0.41 0.42 0.45 0.44 0.43 0.41 0.36 0.37 0.38 0.29 0.28 0.31 0.30 0.27 0.21 0.20 0.18 0.12 0.18 0.16 0.14 0.12 0.09 0.11 0.11 0.12 0.13 0.14 0.17 0.18 0.19 0.23 0.28 0.32 0.30 0.28 0.54 0.56 0.46 0.56 0.64 0.55 0.47
0.42 0.40 0.37 0.31 0.29 0.29 0.32 0.38 0.42 0.43 0.42 0.43 0.44 0.44 0.42 0.40 0.39 0.37 0.33 0.39 0.37 0.28 0.29 0.32 0.32 0.34 0.30 0.26 0.19 0.20 0.18 0.18 0.18 0.14 0.14 0.16 0.14 0.18 0.16 0.12 0.21 0.20 0.27 0.31 0.37 0.33 0.46 0.56 0.58 0.64 0.69 0.61 0.54 0.49
0.43 0.41 0.37 0.31 0.30 0.31 0.35 0.41 0.43 0.44 0.44 0.45 0.45 0.45 0.42 0.39 0.38 0.36 0.35 0.35 0.31 0.27 0.26 0.25 0.27 0.33 0.32 0.29 0.32 0.15 0.21 0.24 0.22 0.26 0.21 0.22 0.18 0.23 0.15 0.16 0.18 0.19 0.34 0.33 0.36 0.43 0.48 0.55 0.60 0.67 0.63 0.61 0.56 0.52
0.44 0.41 0.36 0.33 0.33 0.35 0.38 0.43 0.44 0.45 0.45 0.48 0.48 0.46 0.44 0.43 0.42 0.39 0.36 0.38 0.31 0.27 0.21 0.24 0.35 0.29 0.36 0.35 0.32 0.31 0.28 0.31 0.31 0.29 0.25 0.25 0.22 0.29 0.25 0.27 0.26 0.31 0.40 0.39 0.39 0.45 0.53 0.58 0.58 0.59 0.57 0.58 0.55 0.52
0.46 0.42 0.37 0.35 0.36 0.38 0.42 0.44 0.45 0.47 0.47 0.49 0.49 0.49 0.48 0.47 0.47 0.44 0.42 0.43 0.42 0.23 0.21 0.25 0.32 0.35 0.37 0.38 0.33 0.32 0.31 0.30 0.29 0.26 0.26 0.26 0.34 0.35 0.33 0.32 0.29 0.39 0.40 0.37 0.37 0.50 0.52 0.54 0.61 0.60 0.55 0.54 0.54 0.51
0.47 0.44 0.38 0.38 0.39 0.41 0.43 0.46 0.47 0.48 0.47 0.48 0.49 0.49 0.50 0.49 0.45 0.34 0.29 0.40 0.42 0.34 0.25 0.19 0.35 0.34 0.37 0.38 0.34 0.31 0.34 0.32 0.32 0.29 0.30 0.34 0.38 0.37 0.29 0.26 0.38 0.49 0.55 0.57 0.51 0.61 0.61 0.65 0.64 0.63 0.56 0.53 0.54 0.51
0.49 0.46 0.41 0.41 0.41 0.44 0.47 0.49 0.50 0.50 0.51 0.48 0.46 0.46 0.47 0.45 0.40 0.30 0.32 0.41 0.46 0.39 0.25 0.21 0.24 0.35 0.38 0.36 0.35 0.33 0.37 0.34 0.33 0.32 0.33 0.36 0.37 0.41 0.33 0.28 0.45 0.55 0.59 0.60 0.64 0.65 0.60 0.64 0.58 0.63 0.60 0.56 0.54 0.48
0.51 0.48 0.43 0.43 0.44 0.47 0.50 0.53 0.53 0.54 0.53 0.51 0.49 0.47 0.46 0.46 0.46 0.42 0.47 0.49 0.48 0.36 0.34 0.22 0.23 0.26 0.36 0.28 0.27 0.36 0.31 0.34 0.34 0.33 0.37 0.37 0.41 0.41 0.32 0.44 0.53 0.59 0.61 0.62 0.66 0.70 0.68 0.69 0.64 0.61 0.60 0.56 0.45 0.39
0.53 0.49 0.45 0.45 0.47 0.51 0.53 0.55 0.56 0.58 0.57 0.53 0.50 0.46 0.41 0.40 0.38 0.41 0.48 0.45 0.43 0.34 0.26 0.27 0.20 0.17 0.33 0.30 0.33 0.33 0.35 0.25 0.36 0.31 0.35 0.39 0.36 0.33 0.42 0.46 0.53 0.60 0.60 0.63 0.70 0.73 0.73 0.65 0.60 0.59 0.56 0.49 0.39 0.38
0.53 0.49 0.46 0.46 0.49 0.53 0.54 0.55 0.58 0.59 0.58 0.54 0.48 0.37 0.32 0.43 0.50 0.44 0.32 0.25 0.28 0.33 0.34 0.26 0.28 0.21 0.29 0.27 0.25 0.26 0.30 0.26 0.22 0.31 0.40 0.33 0.35 0.46 0.52 0.56 0.61 0.66 0.68 0.72 0.66 0.64 0.63 0.59 0.58 0.57 0.54 0.47 0.42 0.39
0.52 0.49 0.47 0.48 0.52 0.54 0.55 0.57 0.59 0.58 0.55 0.49 0.41 0.41 0.49 0.52 0.37 0.31 0.25 0.24 0.26 0.23 0.30 0.29 0.24 0.20 0.30 0.19 0.20 0.26 0.22 0.25 0.19 0.26 0.27 0.27 0.31 0.43 0.54 0.59 0.67 0.72 0.73 0.74 0.75 0.72 0.68 0.62 0.61 0.59 0.53 0.47 0.42 0.40
0.53 0.50 0.49 0.51 0.55 0.57 0.58 0.61 0.59 0.55 0.53 0.51 0.48 0.51 0.45 0.35 0.30 0.25 0.25 0.28 0.24 0.21 0.29 0.25 0.23 0.25 0.25 0.27 0.22 0.24 0.18 0.22 0.17 0.32 0.24 0.20 0.33 0.45 0.53 0.57 0.66 0.72 0.73 0.72 0.72 0.69 0.66 0.67 0.68 0.63 0.54 0.47 0.43 0.41
0.58 0.56 0.58 0.60 0.62 0.62 0.64 0.62 0.59 0.59 0.60 0.53 0.44 0.37 0.34 0.31 0.23 0.20 0.20 0.23 0.23 0.28 0.29 0.26 0.23 0.27 0.28 0.28 0.24 0.22 0.17 0.18 0.30 0.24 0.18 0.23 0.33 0.43 0.52 0.57 0.61 0.71 0.74 0.73 0.71 0.71 0.71 0.68 0.69 0.66 0.56 0.52 0.48 0.43
0.67 0.64 0.62 0.62 0.62 0.63 0.64 0.64 0.63 0.62 0.52 0.41 0.35 0.29 0.28 0.26 0.27 0.27 0.24 0.26 0.30 0.29 0.29 0.28 0.26 0.25 0.28 0.22 0.23 0.17 0.22 0.24 0.19 0.14 0.13 0.24 0.31 0.39 0.47 0.56 0.60 0.62 0.69 0.72 0.72 0.72 0.70 0.69 0.68 0.67 0.63 0.60 0.54 0.47
0.72 0.69 0.66 0.63 0.64 0.66 0.66 0.66 0.65 0.60 0.49 0.39 0.37 0.28 0.30 0.36 0.36 0.36 0.35 0.31 0.33 0.33 0.29 0.25 0.24 0.26 0.23 0.20 0.23 0.20 0.18 0.16 0.19 0.15 0.23 0.30 0.33 0.36 0.41 0.48 0.55 0.59 0.63 0.68 0.73 0.71 0.70 0.70 0.67 0.67 0.66 0.68 0.61 0.53
0.71 0.69 0.64 0.65 0.66 0.66 0.67 0.65 0.58 0.54 0.49 0.42 0.40 0.36 0.39 0.35 0.33 0.34 0.32 0.30 0.33 0.31 0.29 0.27 0.23 0.20 0.19 0.21 0.18 0.15 0.16 0.16 0.21 0.27 0.33 0.37 0.33 0.30 0.31 0.36 0.44 0.55 0.62 0.65 0.70 0.74 0.71 0.66 0.66 0.65 0.65 0.64 0.68 0.66
0.68 0.62 0.66 0.64 0.65 0.67 0.66 0.57 0.51 0.44 0.41 0.39 0.38 0.43 0.40 0.37 0.35 0.35 0.33 0.30 0.32 0.27 0.21 0.22 0.19 0.18 0.25 0.19 0.19 0.23 0.21 0.25 0.31 0.33 0.36 0.39 0.32 0.29 0.31 0.31 0.38 0.49 0.55 0.61 0.65 0.68 0.73 0.69 0.65 0.60 0.58 0.65 0.61 0.68
0.65 0.65 0.65 0.63 0.64 0.62 0.57 0.53 0.44 0.40 0.36 0.41 0.37 0.39 0.39 0.38 0.35 0.32 0.31 0.31 0.26 0.24 0.22 0.17 0.20 0.17 0.17 0.17 0.18 0.20 0.26 0.29 0.30 0.29 0.30 0.30 0.30 0.28 0.26 0.26 0.32 0.37 0.40 0.44 0.51 0.60 0.64 0.68 0.69 0.67 0.66 0.60 0.62 0.60
0.65 0.63 0.61 0.61 0.59 0.52 0.45 0.44 0.45 0.34 0.37 0.40 0.41 0.40 0.38 0.36 0.37 0.35 0.31 0.29 0.28 0.26 0.22 0.18 0.14 0.12 0.15 0.20 0.21 0.22 0.22 0.23 0.23 0.24 0.26 0.27 0.26 0.25 0.24 0.24 0.24 0.28 0.34 0.37 0.40 0.49 0.57 0.66 0.64 0.69 0.70 0.69 0.57 0.59
0.66 0.62 0.59 0.59 0.54 0.43 0.38 0.37 0.46 0.35 0.30 0.33 0.35 0.31 0.31 0.30 0.32 0.31 0.30 0.28 0.27 0.24 0.20 0.17 0.16 0.16 0.15 0.16 0.20 0.21 0.23 0.25 0.23 0.21 0.21 0.23 0.24 0.23 0.20 0.21 0.21 0.24 0.26 0.32 0.36 0.48 0.59 0.64 0.65 0.62 0.66 0.70 0.63 0.54
0.63 0.59 0.58 0.54 0.49 0.45 0.37 0.34 0.31 0.33 0.32 0.28 0.31 0.29 0.27 0.29 0.27 0.26 0.27 0.31 0.26 0.23 0.20 0.21 0.21 0.22 0.23 0.23 0.23 0.23 0.22 0.23 0.21 0.21 0.20 0.19 0.21 0.20 0.19 0.19 0.22 0.22 0.21 0.23 0.27 0.38 0.52 0.56 0.60 0.60 0.61 0.65 0.63 0.58
0.58 0.60 0.54 0.53 0.42 0.40 0.33 0.34 0.29 0.33 0.28 0.27 0.27 0.27 0.23 0.22 0.23 0.24 0.29 0.25 0.24 0.23 0.25 0.24 0.23 0.23 0.23 0.22 0.23 0.24 0.24 0.24 0.23 0.23 0.23 0.23 0.19 0.18 0.18 0.20 0.20 0.19 0.21 0.23 0.26 0.28 0.38 0.51 0.58 0.62 0.63 0.62 0.60 0.61
0.59 0.55 0.48 0.44 0.34 0.31 0.30 0.38 0.27 0.27 0.21 0.23 0.25 0.22 0.23 0.23 0.26 0.29 0.21 0.24 0.23 0.26 0.26 0.25 0.24 0.24 0.23 0.24 0.25 0.25 0.25 0.24 0.22 0.21 0.22 0.22 0.22 0.23 0.23 0.23 0.25 0.24 0.22 0.24 0.29 0.29 0.29 0.34 0.48 0.56 0.61 0.62 0.64 0.64
0.58 0.46 0.37 0.32 0.31 0.27 0.33 0.28 0.30 0.26 0.26 0.23 0.20 0.18 0.21 0.23 0.27 0.23 0.19 0.21 0.23 0.26 0.23 0.23 0.23 0.21 0.22 0.22 0.21 0.20 0.21 0.23 0.22 0.23 0.24 0.23 0.23 0.24 0.28 0.27 0.27 0.27 0.29 0.30 0.30 0.31 0.32 0.32 0.35 0.44 0.53 0.56 0.55 0.56
0.38 0.36 0.35 0.28 0.32 0.28 0.25 0.25 0.25 0.24 0.20 0.22 0.19 0.19 0.21 0.25 0.20 0.20 0.19 0.21 0.22 0.20 0.21 0.22 0.21 0.19 0.17 0.18 0.19 0.20 0.23 0.23 0.20 0.20 0.23 0.25 0.27 0.29 0.29 0.29 0.30 0.34 0.38 0.34 0.34 0.36 0.36 0.37 0.36 0.35 0.36 0.46 0.52 0.53
0.30 0.34 0.29 0.28 0.28 0.24 0.24 0.21 0.21 0.21 0.22 0.21 0.20 0.23 0.25 0.22 0.18 0.16 0.19 0.20 0.20 0.21 0.21 0.19 0.18 0.17 0.17 0.19 0.18 0.19 0.20 0.22 0.22 0.20 0.22 0.26 0.23 0.20 0.17 0.17 0.18 0.19 0.24 0.26 0.26 0.25 0.27 0.30 0.30 0.29 0.32 0.35 0.42 0.51
0.29 0.28 0.32 0.36 0.32 0.28 0.26 0.26 0.26 0.22 0.20 0.18 0.21 0.20 0.19 0.15 0.14 0.18 0.22 0.23 0.21 0.22 0.24 0.23 0.21 0.20 0.18 0.17 0.19 0.20 0.22 0.22 0.21 0.20 0.22 0.19 0.17 0.18 0.18 0.17 0.16 0.19 0.25 0.26 0.27 0.27 0.28 0.30 0.33 0.33 0.30 0.32 0.36 0.41
0.34 0.33 0.26 0.29 0.29 0.28 0.23 0.23 0.21 0.19 0.19 0.22 0.21 0.16 0.15 0.14 0.14 0.20 0.22 0.24 0.24 0.26 0.26 0.25 0.24 0.24 0.22 0.22 0.22 0.22 0.23 0.25 0.25 0.24 0.24 0.21 0.21 0.22 0.24 0.25 0.25 0.25 0.26 0.27 0.28 0.30 0.31 0.31 0.31 0.33 0.34 0.32 0.33 0.38
0.32 0.34 0.32 0.28 0.28 0.27 0.24 0.21 0.20 0.21 0.23 0.21 0.16 0.15 0.16 0.20 0.22 0.23 0.24 0.25 0.26 0.25 0.23 0.23 0.24 0.26 0.26 0.26 0.25 0.27 0.28 0.27 0.23 0.20 0.19 0.18 0.18 0.19 0.24 0.26 0.26 0.27 0.27 0.27 0.31 0.33 0.34 0.34 0.34 0.34 0.36 0.36 0.36 0.37
0.31 0.34 0.29 0.28 0.25 0.22 0.24 0.25 0.23 0.26 0.26 0.25 0.23 0.21 0.21 0.21 0.24 0.27 0.27 0.26 0.24 0.22 0.23 0.23 0.23 0.23 0.22 0.21 0.21 0.22 0.26 0.26 0.24 0.21 0.18 0.18 0.20 0.25 0.26 0.27 0.28 0.30 0.31 0.31 0.32 0.34 0.36 0.36 0.37 0.36 0.35 0.35 0.34 0.33
0.35 0.32 0.28 0.28 0.26 0.28 0.29 0.30 0.30 0.29 0.28 0.25 0.24 0.20 0.19 0.21 0.24 0.28 0.27 0.27 0.26 0.25 0.24 0.23 0.24 0.25 0.24 0.23 0.22 0.20 0.19 0.23 0.23 0.23 0.23 0.24 0.26 0.26 0.27 0.29 0.31 0.33 0.33 0.33 0.33 0.33 0.34 0.35 0.36 0.35 0.34 0.33 0.33 0.33
0.32 0.29 0.27 0.25 0.27 0.33 0.34 0.29 0.27 0.26 0.26 0.24 0.23 0.24 0.23 0.21 0.19 0.23 0.28 0.28 0.26 0.23 0.24 0.26 0.25 0.25 0.26 0.27 0.27 0.26 0.24 0.23 0.23 0.25 0.25 0.27 0.27 0.29 0.32 0.35 0.37 0.38 0.37 0.36 0.35 0.35 0.34 0.33 0.32 0.33 0.33 0.34 0.35 0.35
0.32 0.31 0.31 0.30 0.29 0.28 0.30 0.28 0.26 0.25 0.25 0.24 0.23 0.24 0.23 0.21 0.18 0.23 0.29 0.31 0.28 0.25 0.26 0.27 0.28 0.28 0.28 0.27 0.25 0.24 0.26 0.28 0.29 0.29 0.30 0.31 0.31 0.32 0.33 0.34 0.35 0.36 0.35 0.35 0.34 0.34 0.33 0.33 0.33 0.33 0.33 0.33 0.32 0.33
Wind_Speed
44 41 39 36 33 31 29 26 23 20 18 16 15 13 12 11 11 10 7 6 6 5 3 2 2 3 4 6 7 10 10 14 14 15 16 18 18 19 18 16 9 3 7 7 6 6 6 1 3 5 1 1 1 2
44 41 39 36 34 31 29 26 23 20 18 16 15 14 13 12 11 11 8 7 8 4 5 5 6 6 6 6 7 11 9 12 14 15 18 19 20 20 17 11 6 5 9 9 8 7 6 5 5 2 2 1 1 2
44 42 39 37 34 32 29 27 23 20 18 17 15 14 13 12 11 12 12 10 8 9 6 4 4 7 8 9 9 9 11 12 15 17 17 19 20 17 13 6 3 6 9 9 4 7 5 5 4 6 1 0 1 3
44 42 40 37 35 32 29 27 24 21 19 17 16 15 15 15 14 12 10 7 5 3 2 1 3 5 7 9 11 12 11 13 15 17 18 20 19 15 9 4 4 7 7 6 7 6 2 10 5 1 1 1 3 4
44 42 40 38 35 32 29 27 24 21 19 18 17 16 16 15 13 10 8 5 4 3 3 3 3 5 6 9 11 13 13 13 15 17 19 18 16 13 9 5 4 6 5 6 7 5 8 8 5 4 3 3 5 6
44 42 40 38 35 32 29 27 24 21 20 18 17 17 16 14 12 9 6 3 5 8 3 1 2 3 6 7 10 12 12 13 15 17 18 16 12 11 8 5 5 3 1 4 5 6 8 7 6 4 3 5 7 8
44 42 40 38 36 33 30 27 24 22 20 18 17 15 15 13 11 8 8 8 4 3 1 0 2 4 4 6 8 10 12 12 13 16 18 15 11 9 8 6 4 3 2 2 4 5 7 6 3 3 3 5 8 10
44 42 41 38 36 33 30 27 25 22 20 18 16 15 14 13 10 8 7 5 4 3 2 1 2 3 4 6 7 8 10 11 14 14 16 15 9 8 6 6 6 4 3 2 4 6 7 4 3 2 3 5 8 12
44 42 40 38 36 33 30 27 24 22 20 18 16 15 13 11 10 10 7 5 2 3 3 2 2 3 3 4 5 7 8 10 11 13 15 13 10 8 7 8 6 6 3 1 2 6 5 4 3 3 4 6 11 14
43 42 40 38 35 32 30 27 25 22 20 18 16 13 12 11 11 10 8 6 4 4 3 2 2 2 2 3 5 5 7 8 9 11 12 12 9 7 9 8 5 4 3 2 4 2 2 3 4 4 5 7 11 14
42 41 39 37 35 32 29 27 24 22 20 18 15 14 15 13 11 9 8 6 6 4 4 4 2 1 3 3 4 5 5 7 8 9 9 9 9 8 9 7 5 5 3 3 2 2 1 3 5 5 5 7 10 14
41 40 39 36 34 31 28 26 23 21 19 18 16 16 14 12 10 9 9 8 6 6 6 5 4 2 3 3 3 5 4 6 6 7 7 7 7 8 7 7 7 4 4 3 3 2 2 2 3 4 6 7 9 12
41 39 38 35 33 31 27 25 23 23 20 19 16 15 13 13 10 11 11 9 8 8 8 7 4 4 4 4 4 4 4 5 5 6 6 6 6 6 5 5 6 5 4 3 2 3 3 2 3 4 5 7 8 10
40 38 37 34 32 30 28 26 24 22 21 18 17 15 14 13 14 12 11 10 10 8 8 7 5 5 5 5 5 4 5 4 5 5 5 6 5 4 4 4 3 4 2 2 2 1 1 1 2 2 3 6 8 9
39 37 35 34 33 30 27 25 23 21 19 17 16 16 16 14 12 12 11 10 9 9 8 7 6 6 6 5 6 5 5 5 5 5 5 5 6 5 4 4 3 3 3 1 2 2 1 1 1 1 2 3 6 8
38 36 33 33 31 29 26 24 21 19 17 15 14 14 15 14 12 12 12 11 10 10 9 8 8 8 8 7 7 7 6 7 7 6 5 6 6 6 5 5 5 4 3 2 3 4 4 3 3 3 1 3 4 5
37 32 35 33 31 27 25 22 19 16 15 14 14 14 15 14 14 13 12 11 11 11 10 9 9 10 8 8 8 8 7 7 6 6 6 6 6 7 7 7 6 4 5 5 5 5 6 7 5 5 4 3 4 6
30 36 34 33 30 26 22 19 17 14 13 14 14 14 14 13 13 12 11 11 11 11 11 11 10 10 10 9 10 9 8 7 7 6 6 6 7 8 9 10 10 9 9 9 9 9 7 8 10 8 7 6 7 6
35 36 34 31 27 23 19 18 14 13 13 14 14 14 13 12 12 12 12 11 11 10 10 10 11 12 12 11 10 10 10 10 9 9 9 10 11 11 12 12 13 14 13 13 12 11 12 10 10 13 12 10 9 10
35 34 32 29 25 19 16 16 14 12 14 13 14 13 12 11 10 11 11 11 11 10 11 11 12 12 12 12 12 12 12 12 12 12 12 13 13 14 14 13 13 14 14 14 13 13 11 14 14 12 14 13 12 12
36 34 31 28 22 18 15 16 13 12 14 13 13 11 10 9 9 10 11 12 12 13 13 13 13 14 14 13 13 13 13 13 12 11 12 12 12 12 13 14 13 13 13 14 15 15 14 13 14 15 15 16 15 14
35 38 30 25 21 17 14 14 13 13 11 12 12 10 8 7 9 11 11 12 14 15 15 14 14 14 15 15 14 13 12 11 11 11 11 11 11 12 12 12 13 14 14 15 16 17 18 18 17 16 17 18 16 16
37 33 27 23 19 17 16 16 14 12 10 12 10 8 7 6 9 9 11 13 14 15 15 15 15 15 14 12 11 10 10 10 10 10 9 10 10 11 13 15 15 16 16 17 18 18 20 21 20 19 19 18 18 19
35 28 25 23 20 19 19 17 15 12 11 10 8 6 6 7 8 9 12 14 14 13 13 12 11 10 10 10 9 9 8 8 8 8 8 9 11 12 14 16 17 19 19 20 20 20 21 22 23 23 23 23 22 21
29 28 26 24 23 22 19 19 17 15 12 12 8 6 6 6 8 10 11 12 11 11 11 10 11 11 10 9 8 8 8 8 9 10 11 11 12 14 16 18 20 20 21 22 22 22 22 23 23 24 25 26 26 27
29 27 28 28 26 24 22 20 20 18 15 12 10 8 7 6 7 9 11 11 11 11 11 11 10 10 9 9 8 8 9 10 10 11 12 13 16 18 20 23 24 24 26 26 26 27 27 27 28 28 28 28 28 28
31 28 30 28 27 25 23 20 19 19 17 15 13 10 8 7 8 9 11 13 13 12 12 11 11 10 9 9 9 10 11 11 12 12 14 16 19 22 24 27 28 27 27 26 26 26 26 26 27 27 28 28 29 30
33 33 32 31 27 26 24 23 21 20 19 16 13 12 11 10 8 8 10 11 15 15 14 12 12 12 11 11 11 12 13 14 15 17 19 21 24 26 29 32 31 29 28 26 25 25 25 25 26 27 28 29 29 29
34 34 32 30 29 26 27 25 24 21 19 18 15 13 13 11 9 9 10 13 15 17 16 15 15 15 15 15 15 16 17 17 18 21 23 25 28 30 33 34 31 28 27 25 25 25 25 25 25 26 27 28 29 29
36 36 33 33 31 28 27 26 25 22 20 20 18 15 14 14 14 14 14 15 17 20 20 19 18 18 18 18 18 19 20 20 22 23 26 28 31 33 32 31 29 26 24 22 22 23 23 23 24 25 26 27 28 29
39 34 32 33 32 30 27 26 25 23 22 21 20 19 17 16 17 18 19 20 21 23 22 21 21 22 21 21 21 21 22 23 25 27 29 30 31 31 31 29 26 25 23 23 22 22 22 22 23 23 24 25 27 28
39 37 34 31 32 31 29 27 26 24 23 22 22 21 20 19 20 20 20 22 23 24 25 25 24 23 23 23 23 23 24 25 25 26 27 27 28 29 29 27 25 24 22 22 22 23 23 23 23 24 24 25 26 27
38 36 35 33 31 32 31 29 27 25 23 23 22 22 23 23 23 21 20 22 24 25 26 26 26 25 24 24 23 23 25 25 26 26 26 27 28 29 29 27 26 25 25 25 26 26 27 28 28 29 29 29 29 29
Wind_Direction
181 181 180 180 179 178 177 176 176 175 174 173 171 170 169 167 168 168 163 169 181 152 107 61 34 15 0 349 344 333 340 343 344 344 338 331 330 324 320 315 307 264 197 177 176 174 163 97 137 107 110 339 43 60
180 180 179 179 178 177 176 175 174 174 173 172 171 170 168 168 169 167 160 146 143 139 133 90 61 39 18 359 355 354 351 346 346 346 340 335 332 329 324 312 293 210 182 182 177 194 197 192 212 208 139 134 106 95
179 178 178 178 177 176 175 174 174 172 171 171 170 168 165 163 161 157 149 145 132 121 92 81 40 26 21 10 359 356 351 350 351 349 347 346 347 341 340 325 257 201 178 183 188 162 196 225 180 151 174 203 154 154
178 177 177 177 176 175 175 174 173 171 170 168 165 162 158 153 149 151 156 165 165 156 137 43 36 24 16 18 16 12 4 0 0 360 358 359 0 5 15 40 122 157 173 184 189 179 204 155 153 244 271 254 180 163
177 177 177 176 175 175 175 174 173 172 170 168 166 163 160 156 153 150 145 146 175 194 173 136 37 16 18 14 16 14 12 10 7 4 4 3 8 19 30 60 103 134 157 175 185 235 203 223 238 282 269 224 189 170
176 176 176 176 175 175 174 174 174 173 173 172 172 173 174 176 178 180 180 150 120 133 141 358 1 8 8 13 13 11 10 12 12 10 7 7 11 28 39 70 97 128 185 218 211 215 215 225 244 250 234 206 204 186
176 176 176 176 176 175 175 174 172 171 170 169 170 172 176 178 182 194 196 186 187 180 190 115 336 335 353 358 1 6 9 9 8 9 11 12 19 31 49 72 44 11 333 250 206 190 177 167 181 267 236 204 191 184
176 177 177 177 177 177 176 176 175 174 173 171 171 171 172 174 179 179 171 181 189 192 227 273 314 331 328 345 355 360 6 10 10 10 11 16 20 39 55 30 7 8 357 163 165 182 198 223 227 226 189 174 169 160
177 177 178 178 178 178 178 178 178 178 178 177 177 178 181 186 191 189 189 183 172 216 227 263 266 290 316 341 350 358 4 9 6 14 15 20 26 38 6 352 7 11 41 216 196 174 182 191 199 188 170 157 155 160
177 178 179 179 180 180 181 181 182 183 184 185 188 193 197 196 190 193 200 216 237 258 254 232 267 296 302 320 336 343 348 355 4 5 10 20 21 16 11 8 4 10 21 86 142 140 168 182 180 172 165 161 170 166
178 179 180 180 181 182 184 184 186 189 192 195 198 202 190 191 198 210 215 220 238 245 236 227 240 256 304 314 323 331 336 345 359 355 12 11 12 7 10 19 28 33 53 92 106 152 165 176 179 179 173 169 170 175
178 179 180 182 183 185 187 190 194 197 198 197 190 186 193 204 212 210 220 227 232 229 223 210 231 254 287 302 314 322 333 341 340 352 7 2 358 4 12 21 21 35 49 67 74 81 104 138 156 171 178 174 174 179
179 181 182 184 185 186 188 188 188 185 188 192 196 202 207 215 213 213 215 228 225 221 215 213 235 258 285 296 301 307 318 315 335 350 349 339 340 355 9 8 14 30 38 45 50 60 82 112 135 159 174 179 178 181
181 182 184 185 186 187 188 189 192 194 196 201 204 207 211 221 221 222 217 213 217 206 205 214 240 264 272 280 276 291 290 300 319 331 323 334 325 326 357 11 6 7 29 8 8 14 76 102 104 130 171 190 191 192
179 181 183 185 185 186 187 189 190 192 197 203 206 210 213 215 210 208 206 200 204 205 214 229 249 260 270 268 274 276 284 284 281 279 299 314 326 307 308 343 350 333 340 313 295 265 259 236 172 137 179 188 199 202
173 173 177 176 177 179 180 182 186 190 196 199 205 206 201 198 202 200 200 205 214 218 227 244 249 260 264 258 258 257 257 263 264 269 287 302 315 320 290 302 311 294 280 301 243 249 255 257 246 228 172 198 196 203
173 178 176 175 175 176 177 181 184 189 195 199 199 195 193 194 197 203 209 217 223 230 236 242 250 253 258 258 253 252 255 252 256 272 281 285 294 308 295 286 301 293 282 269 261 260 249 248 252 241 238 237 222 216
173 171 171 172 174 174 179 184 187 196 198 197 194 197 198 200 201 210 217 223 225 228 235 243 246 253 253 250 251 249 243 243 249 260 270 285 297 307 304 287 271 277 277 277 271 259 260 251 245 245 250 248 234 234
166 166 167 168 170 171 178 183 185 186 190 190 192 196 200 205 212 215 217 221 221 226 235 248 251 251 250 250 242 242 242 243 249 259 269 281 289 295 302 298 282 274 271 272 269 263 253 244 247 242 246 249 246 242
166 166 166 167 169 170 174 180 183 184 187 190 187 189 193 199 206 211 214 220 224 235 243 246 246 248 248 247 241 243 246 251 258 265 270 277 283 289 294 295 294 280 272 264 265 259 259 248 249 251 242 242 246 249
166 169 167 167 167 166 167 171 175 177 174 179 182 186 195 204 212 217 220 226 233 237 245 249 251 251 249 250 249 250 253 253 254 258 267 276 282 284 292 295 291 290 280 271 262 258 256 256 255 251 248 244 245 249
170 169 169 171 173 174 172 175 172 173 179 183 184 189 199 216 222 227 231 238 241 243 246 251 253 251 250 249 250 249 247 247 251 260 266 273 282 287 293 296 293 292 288 277 270 261 257 258 258 257 249 245 245 248
168 171 174 176 177 178 180 172 176 177 171 180 187 196 224 242 232 236 242 240 241 247 249 250 250 246 243 241 234 235 240 245 254 259 270 276 281 291 296 296 292 291 290 287 278 273 265 259 256 255 251 248 248 248
174 180 182 184 184 184 182 184 184 179 179 182 194 212 235 243 246 250 249 240 244 247 243 242 234 227 220 216 222 233 243 248 252 265 277 288 294 304 308 303 297 291 289 288 283 278 271 264 259 255 253 251 249 249
182 189 190 191 193 187 188 189 192 191 194 198 207 229 239 250 258 256 246 240 234 229 233 227 217 213 214 219 226 240 252 256 265 273 287 290 296 303 309 313 306 297 292 289 284 280 275 271 264 259 257 253 251 250
192 195 194 194 193 194 194 193 197 196 196 207 218 223 239 257 262 259 236 226 222 215 211 207 207 210 221 228 241 253 262 267 271 282 290 295 301 304 306 310 305 298 293 286 281 278 276 271 267 265 259 256 254 251
195 198 198 198 197 197 197 198 199 200 205 213 217 223 236 253 265 257 232 222 214 219 212 212 214 219 232 245 256 266 273 272 271 283 293 300 306 307 306 308 305 297 293 287 281 277 276 272 266 263 261 258 254 252
201 200 199 198 198 199 199 200 201 204 210 217 212 223 229 239 258 250 234 226 222 217 216 226 229 235 245 256 267 275 279 274 278 288 292 297 303 306 304 305 302 296 291 284 279 277 276 273 267 263 260 259 258 254
201 200 197 198 199 204 206 207 208 211 211 212 220 227 234 242 251 252 253 236 223 218 230 239 243 245 258 267 275 277 278 279 286 290 292 297 303 306 307 305 300 296 289 281 276 276 275 274 271 265 262 260 258 256
200 199 201 203 205 209 212 209 210 210 215 222 228 235 243 247 252 254 257 246 239 233 237 243 247 252 261 268 278 282 283 283 285 290 296 299 304 307 307 305 300 295 287 279 277 278 277 276 274 270 265 262 260 257
199 203 206 208 211 213 213 213 213 213 219 226 233 235 243 253 257 258 257 255 248 240 241 246 252 256 263 272 277 282 285 287 289 293 297 300 304 306 305 303 297 293 285 278 276 278 279 278 276 274 271 268 264 261
203 207 207 210 213 212 212 214 215 217 224 230 236 241 248 254 259 266 264 256 250 243 242 246 252 259 266 272 277 281 284 288 291 297 299 302 304 307 306 301 295 290 285 279 277 277 277 278 278 277 275 273 270 267
205 208 210 211 212 213 215 215 219 223 228 232 237 239 245 251 259 265 270 261 249 243 245 249 254 261 267 271 274 281 287 291 292 296 298 301 303 307 306 300 293 287 283 280 278 278 278 278 278 277 276 275 273 271